Regional Weather Roundup
Issued by NWS

Home | Current Version | Previous Version | Graphics & Text | Print | Product List | Glossary On
Versions: 1 2 3 4 5 6 7 8 9 10 11 12 13 14 15 16 17 18 19 20 21 22 23 24 25 26 27 28 29 30 31 32 33 34 35 36 37 38 39 40 41 42 43 44 45 46 47 48 49 50
000
ASUS43 KMKX 151811
RWRWI

WISCONSIN REGIONAL WEATHER ROUNDUP
NATIONAL WEATHER SERVICE MILWAUKEE/SULLIVAN WI
100 PM CDT TUE APR 15 2014

NOTE: "FAIR" INDICATES FEW OR NO CLOUDS BELOW 12,000 FEET WITH NO
SIGNIFICANT WEATHER AND/OR OBSTRUCTIONS TO VISIBILITY.

WIZ001-002-006>008-014>016-023>028-151900-
NORTHWEST WISCONSIN

CITY           SKY/WX    TMP DP  RH WIND       PRES   REMARKS
SUPERIOR ARPT  SUNNY     28   4  36 W8        30.13F WCI  19
ASHLAND        CLOUDY    26   6  42 W8        30.11F WCI  18
6HR MIN TEMP:  18; 6HR MAX TEMP:  27;

HAYWARD        MOSUNNY   26   1  34 VRB5      30.08F WCI  20
6HR MIN TEMP:  16; 6HR MAX TEMP:  28;

SIREN          SUNNY     29   1  30 W6G21     30.11F WCI  23
6HR MIN TEMP:  15; 6HR MAX TEMP:  29;

RICE LAKE      NOT AVBL
LADYSMITH      PTSUNNY   29   7  39 W9        30.10S WCI  21
6HR MIN TEMP:  19; 6HR MAX TEMP:  29;

EAU CLAIRE     PTSUNNY   31   8  38 SW8       30.11F WCI  23
6HR MIN TEMP:  21; 6HR MAX TEMP:  32; 6HR PCP: TRACE;

MENOMONIE      CLEAR     31   7  36 W6        30.13S WCI  25
6HR MIN TEMP:  22; 6HR MAX TEMP:  31;

NEW RICHMOND   MOSUNNY   29   5  36 N5        30.12F WCI  24
6HR MIN TEMP:  19; 6HR MAX TEMP:  30;

OSCEOLA        SUNNY     31   7  36 SW6       30.16F WCI  25
$$

WIZ003>005-009-010-017-018-151900-
NORTH CENTRAL WISCONSIN

CITY           SKY/WX    TMP DP  RH WIND       PRES   REMARKS
WOODRUFF       PTSUNNY   32  15  47 N12G18    30.02F WCI  23
6HR MIN TEMP:   4; 6HR MAX TEMP:  32;

RHINELANDER    PTSUNNY   25   9  50 W12       30.02S WCI  14
6HR MIN TEMP:  11; 6HR MAX TEMP:  25; 6HR PCP: TRACE;

EAGLE RIVER    LGT SNOW  22  11  62 NW10      30.01S WCI  12
6HR MIN TEMP:   2; 6HR MAX TEMP:  26;

LAND O LAKES   LGT SNOW  23  13  66 NW12G26   30.01S WCI  12
PHILLIPS       CLOUDY    27   8  44 SW10      30.04F WCI  17
6HR MIN TEMP:  13; 6HR MAX TEMP:  27;

TOMAHAWK       PTSUNNY   26   8  46 W9        30.04S WCI  16
6HR MIN TEMP:   6; 6HR MAX TEMP:  26;

MEDFORD        CLOUDY    26  10  51 W12       30.06S WCI  15
MERRILL        CLOUDY    28  10  47 CALM      30.05S
6HR MIN TEMP:   9; 6HR MAX TEMP:  28;

$$

WIZ029-030-035-036-043>047-151900-
CENTRAL WISCONSIN

CITY           SKY/WX    TMP DP  RH WIND       PRES   REMARKS
WAUSAU         CLOUDY    27  13  55 NW13      30.05F WCI  16
6HR MIN TEMP:  14; 6HR MAX TEMP:  27; 6HR PCP: TRACE;

MOSINEE        PTSUNNY   27  14  59 SW14      30.08S WCI  15
MARSHFIELD     PTSUNNY   28  11  48 W9        30.08S WCI  19
6HR MIN TEMP:  18; 6HR MAX TEMP:  28; 6HR PCP: TRACE;

STEVENS POINT  MOSUNNY   26  11  52 W13G18    30.09S WCI  15
6HR MIN TEMP:   6; 6HR MAX TEMP:  27;

WAUPACA        PTSUNNY   32  12  43 W12       30.10F WCI  23
WAUTOMA        PTSUNNY   30  19  63 NW9       30.12S WCI  22
6HR MIN TEMP:  14; 6HR MAX TEMP:  30; 6HR PCP: TRACE;

WISC RAPIDS    MIX PCPN  28  11  48 NW10      30.11S WCI  19
6HR MIN TEMP:  12; 6HR MAX TEMP:  29; 6HR PCP: TRACE;

CAMP DOUGLAS   PTSUNNY   28  14  54 W12       30.12S WCI  18
$$

WIZ011>013-019>022-031-037>040-048>050-151900-
NORTHEAST WISCONSIN

CITY           SKY/WX    TMP DP  RH WIND       PRES   REMARKS
ANTIGO         PTSUNNY   26  10  51 NW13      30.03S WCI  15
6HR MIN TEMP:   5; 6HR MAX TEMP:  27;

STURGEON BAY   PTSUNNY   27  10  50 W7G16     30.08S WCI  19
6HR MIN TEMP:  19; 6HR MAX TEMP:  27;

GREEN BAY      PTSUNNY   29  16  58 W13G22    30.10S WCI  19
6HR MIN TEMP:  20; 6HR MAX TEMP:  30;

MANITOWOC      MIX PCPN  30  16  56 NW8       30.11S WCI  22
6HR MIN TEMP:  23; 6HR MAX TEMP:  32; 6HR PCP: TRACE;

APPLETON       PTSUNNY  N/A N/A N/A W9        30.10S
CLINTONVILLE   PTSUNNY   30  12  47 NW10      30.09S WCI  21
OSHKOSH        FLURRIES  29  15  56 W8        30.10F WCI  21
6HR MIN TEMP:  20; 6HR MAX TEMP:  29; 6HR PCP: TRACE;

$$

WIZ032>034-041-042-053>061-151900-
SOUTHWEST WISCONSIN

CITY           SKY/WX    TMP DP  RH WIND       PRES   REMARKS
LA CROSSE      CLOUDY    33  14  45 W10       30.15F WCI  25
6HR MIN TEMP:  26; 6HR MAX TEMP:  33;

SPARTA         CLOUDY    31  13  48 W7G16     30.14F WCI  24
VIROQUA        FAIR      29  14  51 W12       30.11F WCI  20
6HR MIN TEMP:  20; 6HR MAX TEMP:  30;

BOSCOBEL       CLOUDY    34  12  40 W8        30.15S WCI  27
6HR MIN TEMP:  21; 6HR MAX TEMP:  36; 6HR PCP: TRACE;

PRAIRIE DU CHI CLOUDY    34  13  42 W8G17     30.15F WCI  27
6HR MIN TEMP:  26; 6HR MAX TEMP:  34;

PLATTEVILLE    FAIR      33  16  49 W8        30.14S WCI  26
6HR MIN TEMP:  24; 6HR MAX TEMP:  33;

$$

WIZ056-057-062-063-064-067-068-151900-
SOUTH CENTRAL WISCONSIN

CITY           SKY/WX    TMP DP  RH WIND       PRES   REMARKS
BARABOO/DELLS  PTSUNNY   30  14  52 W12       30.12S WCI  20
6HR MIN TEMP:  13; 6HR MAX TEMP:  30;

LONE ROCK      CLOUDY    33  15  47 W9        30.14F WCI  25
6HR MIN TEMP:  23; 6HR MAX TEMP:  34;

WATERTOWN      CLOUDY    33  15  49 W12       30.11F WCI  24
MADISON        PTSUNNY   33  12  41 NW14G21   30.13S WCI  23
6HR MIN TEMP:  20; 6HR MAX TEMP:  34;

MIDDLETON      CLOUDY    34  14  43 NW8G16    30.12F WCI  27
6HR MIN TEMP:  20; 6HR MAX TEMP:  34;

MONROE         PTSUNNY   33  10  38 NW13G22   30.11S WCI  24
6HR MIN TEMP:  23; 6HR MAX TEMP:  34;

JANESVILLE     CLOUDY    34  10  37 W12G17    30.12F WCI  25
$$

WIZ051-052-058>065-066-070>072-151900-
SOUTHEAST WISCONSIN

CITY           SKY/WX    TMP DP  RH WIND       PRES   REMARKS
MILWAUKEE      PTSUNNY   33  11  39 W9G18     30.13F WCI  25
6HR MIN TEMP:  24; 6HR MAX TEMP:  34;

WAUKESHA       PTSUNNY   30  16  55 W12G18    30.12F WCI  21
MILWAUKEE/TIMM CLOUDY    30  10  43 N12G22    30.13S WCI  21
RACINE         CLOUDY    32  12  43 W10G17    30.14F WCI  24
6HR MIN TEMP:  22; 6HR MAX TEMP:  33;

BURLINGTON     PTSUNNY   29  13  51 NW12      30.12F WCI  20
KENOSHA        PTSUNNY   33  16  49 VRB6      30.13S WCI  28
6HR MIN TEMP:  23; 6HR MAX TEMP:  33;

FOND DU LAC    MOSUNNY   30  14  51 W8        30.11F WCI  22
6HR MIN TEMP:  21; 6HR MAX TEMP:  32;

SHEBOYGAN      PTSUNNY   29  13  51 W12G23    30.11S WCI  19
6HR MIN TEMP:  20; 6HR MAX TEMP:  32;

WEST BEND      PTSUNNY   32   9  37 NW9G20    30.10F WCI  24
JUNEAU         PTSUNNY   31   8  37 W12       30.12S WCI  21
$$

LSZ147-162-151900-
LAKE SUPERIOR

STATION/POSITION TIME  TEMP    WIND        PRES    WAVE
                       AIR SEA DIR/SP/G            HT/PER
                 (UTC) (F)     (DEG/KT/KT) (MB)    (FT/S)
DEVILS ISLAND    1800   25     230/ 10/ 11 1020.9F
PORT WING        1740   24     260/  6/ 12 1020.3F
SAXON HARBOR     1740          360/  6/  8 1020.0F
$$

LMZ867-665-643>646-151900-
LAKE MICHIGAN

STATION/POSITION TIME  TEMP    WIND        PRES    WAVE
                       AIR SEA DIR/SP/G            HT/PER
                 (UTC) (F)     (DEG/KT/KT) (MB)    (FT/S)
NORTHPORT PIER   1700   25     330/  6/ 10 1018.6F
SISTER BAY       1723             CALM       N/A
KEWAUNEE LAKESHO 1700   27     330/  7/ 12 1019.7F
SHEBOYGAN LAKESH 1800   30     290/  8/ 10 1020.7F
PORT WASHINGTON  1700   31     300/  8/ 12 1020.7S
MILWAUKEE LAKESH 1700   30     320/  7/ 16   N/A
KENOSHA   LAKESH 1800   30     320/ 12/ 15   N/A
$$

TC  - TEMPERATURE IN CELSIUS
VSB - VISIBILITY IN STATUTE MILES
WCI - WIND CHILL INDEX
HX  - HEAT INDEX




USA.gov is the U.S. government's official web portal to all federal, state and local government web resources and services.